HYPERVIEW 1G (RS66S)

Last updated on Fri May 09 2025 00:03:04 GMT+0000 (Coordinated Universal Time)

1 61772U 24199AP 25128.53475401 .00022610 00000+0 68261-3 0 9991 2 61772 97.3587 357.4829 0012182 312.1674 47.8534 15.34200513 72048
UTC large
Height (km)
Speed (km/s)
/
Latitude / Longitude
Inclination (degrees)
Orbital Period (minutes)
Azimuth
Elevation
Range (km)
Doppler Factor

Next 0 passes for location: London (51.5072 / 0.1276)

Sorry there are no passes over London.